TimeCST,TemperatureF,Dew PointF,Humidity,Sea Level PressureIn,VisibilityMPH,Wind Direction,Wind SpeedMPH,Gust SpeedMPH,PrecipitationIn,Events,Conditions,WindDirDegrees,DateUTC
12:15 AM,35.6,30.2,81,29.77,10.0,South,6.9,-,N/A,,Overcast,190,2013-01-19 06:15:00
12:35 AM,33.8,28.4,81,29.76,10.0,South,6.9,-,N/A,,Partly Cloudy,190,2013-01-19 06:35:00
12:55 AM,35.6,28.4,75,29.76,10.0,South,5.8,-,N/A,,Mostly Cloudy,190,2013-01-19 06:55:00
1:15 AM,35.6,28.4,75,29.76,10.0,SSW,8.1,-,N/A,,Overcast,200,2013-01-19 07:15:00
1:35 AM,35.6,28.4,75,29.76,10.0,SSW,6.9,-,N/A,,Scattered Clouds,210,2013-01-19 07:35:00
1:55 AM,35.6,28.4,75,29.76,10.0,WSW,6.9,-,N/A,,Scattered Clouds,240,2013-01-19 07:55:00
2:15 AM,35.6,28.4,75,29.76,10.0,WSW,10.4,-,N/A,,Scattered Clouds,240,2013-01-19 08:15:00
2:35 AM,35.6,28.4,75,29.76,10.0,WSW,8.1,-,N/A,,Clear,240,2013-01-19 08:35:00
2:55 AM,35.6,28.4,75,29.76,10.0,WSW,4.6,-,N/A,,Clear,250,2013-01-19 08:55:00
3:15 AM,35.6,28.4,75,29.76,10.0,West,6.9,-,N/A,,Clear,260,2013-01-19 09:15:00
3:35 AM,33.8,26.6,75,29.76,10.0,WSW,9.2,-,N/A,,Mostly Cloudy,250,2013-01-19 09:35:00
3:55 AM,33.8,26.6,75,29.77,10.0,West,10.4,-,N/A,,Overcast,260,2013-01-19 09:55:00
4:15 AM,35.6,26.6,70,29.76,10.0,West,11.5,-,N/A,,Scattered Clouds,270,2013-01-19 10:15:00
4:35 AM,33.8,26.6,75,29.76,10.0,West,9.2,-,N/A,,Clear,260,2013-01-19 10:35:00
4:55 AM,33.8,26.6,75,29.76,10.0,West,9.2,-,N/A,,Clear,270,2013-01-19 10:55:00
5:15 AM,33.8,26.6,75,29.76,10.0,West,8.1,-,N/A,,Clear,260,2013-01-19 11:15:00
5:35 AM,32.0,26.6,80,29.77,10.0,West,10.4,-,N/A,,Clear,270,2013-01-19 11:35:00
5:55 AM,33.8,26.6,75,29.77,10.0,West,9.2,16.1,N/A,,Clear,270,2013-01-19 11:55:00
6:15 AM,32.0,26.6,80,29.78,10.0,West,9.2,-,N/A,,Clear,260,2013-01-19 12:15:00
6:35 AM,32.0,26.6,80,29.78,10.0,West,8.1,-,N/A,,Mostly Cloudy,270,2013-01-19 12:35:00
6:55 AM,32.0,26.6,80,29.80,10.0,West,12.7,16.1,N/A,,Overcast,280,2013-01-19 12:55:00
7:15 AM,32.0,26.6,80,29.81,10.0,West,15.0,-,N/A,,Mostly Cloudy,280,2013-01-19 13:15:00
7:35 AM,33.8,26.6,75,29.82,10.0,West,13.8,-,N/A,,Mostly Cloudy,280,2013-01-19 13:35:00
7:55 AM,32.0,26.6,80,29.82,10.0,West,12.7,-,N/A,,Partly Cloudy,280,2013-01-19 13:55:00
8:15 AM,32.0,26.6,80,29.83,10.0,West,15.0,-,N/A,,Clear,280,2013-01-19 14:15:00
8:35 AM,32.0,26.6,80,29.84,10.0,WNW,15.0,-,N/A,,Clear,290,2013-01-19 14:35:00
8:55 AM,32.0,26.6,80,29.86,10.0,WNW,13.8,-,N/A,,Partly Cloudy,290,2013-01-19 14:55:00
9:15 AM,33.8,28.4,81,29.87,10.0,WNW,11.5,-,N/A,,Scattered Clouds,290,2013-01-19 15:15:00
9:35 AM,33.8,28.4,81,29.88,10.0,WNW,12.7,-,N/A,,Mostly Cloudy,290,2013-01-19 15:35:00
9:55 AM,33.8,28.4,81,29.89,10.0,WNW,11.5,-,N/A,,Mostly Cloudy,290,2013-01-19 15:55:00
10:15 AM,35.6,28.4,75,29.91,10.0,West,10.4,-,N/A,,Partly Cloudy,280,2013-01-19 16:15:00
10:35 AM,35.6,30.2,81,29.91,10.0,West,11.5,-,N/A,,Clear,280,2013-01-19 16:35:00
10:55 AM,35.6,30.2,81,29.92,10.0,West,13.8,-,N/A,,Clear,280,2013-01-19 16:55:00
11:15 AM,35.6,30.2,81,29.92,10.0,West,16.1,-,N/A,,Clear,280,2013-01-19 17:15:00
11:35 AM,37.4,30.2,75,29.93,10.0,West,16.1,-,N/A,,Clear,280,2013-01-19 17:35:00
11:55 AM,37.4,30.2,75,29.93,10.0,West,20.7,-,N/A,,Partly Cloudy,280,2013-01-19 17:55:00
12:15 PM,37.4,30.2,75,29.93,10.0,WNW,23.0,28.8,N/A,,Mostly Cloudy,290,2013-01-19 18:15:00
12:35 PM,35.6,30.2,81,29.93,10.0,WNW,24.2,33.4,N/A,,Overcast,290,2013-01-19 18:35:00
12:55 PM,35.6,30.2,81,29.94,10.0,West,21.9,25.3,N/A,,Overcast,280,2013-01-19 18:55:00
1:15 PM,35.6,30.2,81,29.94,10.0,West,23.0,31.1,N/A,,Overcast,280,2013-01-19 19:15:00
1:35 PM,35.6,28.4,75,29.95,10.0,West,26.5,35.7,N/A,,Overcast,280,2013-01-19 19:35:00
1:55 PM,35.6,24.8,65,29.95,10.0,WNW,34.5,40.3,N/A,,Overcast,300,2013-01-19 19:55:00
2:15 PM,33.8,21.2,60,29.98,10.0,WNW,31.1,42.6,N/A,,Overcast,290,2013-01-19 20:15:00
2:35 PM,28.4,21.2,74,30.01,10.0,NW,20.7,-,N/A,,Mostly Cloudy,320,2013-01-19 20:35:00
2:55 PM,28.4,21.2,74,30.02,10.0,WNW,21.9,27.6,N/A,,Mostly Cloudy,300,2013-01-19 20:55:00
3:15 PM,26.6,19.4,74,30.03,10.0,WNW,27.6,34.5,N/A,,Mostly Cloudy,300,2013-01-19 21:15:00
3:35 PM,24.8,15.8,69,30.05,10.0,WNW,29.9,40.3,N/A,,Scattered Clouds,290,2013-01-19 21:35:00
3:55 PM,23.0,10.4,59,30.07,10.0,WNW,31.1,44.9,N/A,,Partly Cloudy,290,2013-01-19 21:55:00
4:15 PM,19.4,10.4,68,30.09,10.0,WNW,34.5,39.1,N/A,,Scattered Clouds,300,2013-01-19 22:15:00
4:35 PM,17.6,8.6,68,30.12,10.0,WNW,33.4,42.6,N/A,,Mostly Cloudy,300,2013-01-19 22:35:00
4:55 PM,15.8,6.8,68,30.14,3.0,NW,27.6,42.6,N/A,,Overcast,310,2013-01-19 22:55:00
5:15 PM,14.0,6.8,73,30.16,6.0,NW,28.8,38.0,N/A,,Overcast,310,2013-01-19 23:15:00
5:35 PM,12.2,5.0,73,30.18,10.0,WNW,26.5,39.1,N/A,,Overcast,300,2013-01-19 23:35:00
5:55 PM,12.2,8.6,85,30.20,1.2,WNW,27.6,35.7,N/A,,Overcast,300,2013-01-19 23:55:00
6:15 PM,10.4,3.2,73,30.21,10.0,NW,29.9,35.7,N/A,,Mostly Cloudy,310,2013-01-20 00:15:00
6:35 PM,10.4,3.2,73,30.22,10.0,WNW,26.5,32.2,N/A,,Clear,300,2013-01-20 00:35:00
6:55 PM,8.6,1.4,73,30.23,10.0,NW,25.3,35.7,N/A,,Clear,310,2013-01-20 00:55:00
7:15 PM,8.6,-0.4,67,30.23,10.0,NW,27.6,-,N/A,,Clear,310,2013-01-20 01:15:00
7:35 PM,6.8,-2.2,67,30.25,10.0,WNW,20.7,32.2,N/A,,Clear,300,2013-01-20 01:35:00
7:55 PM,6.8,-0.4,72,30.27,10.0,NW,17.3,-,N/A,,Clear,310,2013-01-20 01:55:00
8:15 PM,6.8,-0.4,72,30.27,10.0,NW,21.9,-,N/A,,Clear,310,2013-01-20 02:15:00
8:35 PM,5.0,-2.2,72,30.28,10.0,WNW,20.7,24.2,N/A,,Clear,300,2013-01-20 02:35:00
8:55 PM,5.0,-0.4,78,30.28,10.0,NW,19.6,23.0,N/A,,Clear,310,2013-01-20 02:55:00
9:15 PM,3.2,-4.0,72,30.29,10.0,WNW,17.3,-,N/A,,Clear,300,2013-01-20 03:15:00
9:35 PM,3.2,-2.2,78,30.28,10.0,NW,16.1,-,N/A,,Clear,310,2013-01-20 03:35:00
9:55 PM,3.2,-2.2,78,30.29,10.0,NW,17.3,20.7,N/A,,Clear,310,2013-01-20 03:55:00
10:15 PM,3.2,-4.0,72,30.30,10.0,NW,13.8,-,N/A,,Clear,310,2013-01-20 04:15:00
10:35 PM,1.4,-2.2,85,30.30,10.0,NW,13.8,-,N/A,,Clear,310,2013-01-20 04:35:00
10:55 PM,1.4,-4.0,78,30.30,10.0,NW,15.0,-,N/A,,Clear,310,2013-01-20 04:55:00
11:15 PM,1.4,-5.8,72,30.30,10.0,WNW,11.5,-,N/A,,Clear,300,2013-01-20 05:15:00
11:35 PM,1.4,-2.2,85,30.31,10.0,NW,13.8,-,N/A,,Clear,310,2013-01-20 05:35:00
11:55 PM,1.4,-5.8,72,30.31,10.0,WNW,11.5,-,N/A,,Clear,300,2013-01-20 05:55:00